{"data":{"norad_id":62158,"intl_designator":"2024-224V","name":"STARLINK-32508","alt_names":[],"object_type":"PAYLOAD","status":"ACTIVE","operator":null,"country":"US","launch_date":"2024-11-30","launch_site_code":"AFETR","launch_vehicle":null,"mission":null,"orbit_class":"UNKNOWN","rcs_meters":null,"size_class":null,"mass_kg":null,"dimensions":null,"purposes":["comms"],"wikipedia_slug":null,"has_3d_model":false,"image_url":null,"decayed_at":null,"tle_current":{"epoch":"2026-09-21T00:33:57.671424Z","epoch_age_seconds":136600,"freshness":"FRESH","line1":"1 62158U 24224V   26264.02358416  .00010271  00000+0  38224-3 0  9997","line2":"2 62158  43.0025 134.9743 0001463 268.5074  91.5610 15.27581070102354","mean_motion":15.2758107,"eccentricity":0.0001463,"inclination_deg":43.0025,"raan_deg":134.9743,"arg_perigee_deg":268.5074,"mean_anomaly_deg":91.561,"bstar":0.00038224,"rev_number":10235,"period_min":94.266682684147,"perigee_km":482.04210101948,"apogee_km":484.0496831337,"semimajor_km":6861.1828920766,"source":"CELESTRAK","updated_at":"2026-09-22T09:00:49.533256Z"}}}